La Junta, CO

5:33 PM MDT on April 25, 2017 (GMT -0600)
La Junta Municipal

Weather History for KLHX - August, 2014

Change the Weather History Date:

Friday, August 15, 2014

  Actual Average Record
Temperature  
Mean Temperature 79 °F 76 °F  
Max Temperature 95 °F 91 °F 101 °F (1972)
Min Temperature 62 °F 62 °F 50 °F (1965)
Degree Days  
Heating Degree Days 0 0  
Month to date heating degree days 0 0  
Since 1 June heating degree days 5 17  
Since 1 July heating degree days 0 1  
Cooling Degree Days 14 12  
Month to date cooling degree days 168 185  
Year to date cooling degree days 1007 916  
Since 1 June cooling degree days 885 843  
Growing Degree Days 28 (Base 50)    
Moisture  
Dew Point 57 °F    
Average Humidity 57    
Maximum Humidity 90    
Minimum Humidity 24    
Precipitation  
Precipitation T in 0.06 in 0.75 in (1980)
Month to date precipitation 2.05 0.87  
Year to date precipitation 10.58  
Sea Level Pressure  
Sea Level Pressure 29.87 in    
Wind  
Wind Speed 10 mph (NW)    
Max Wind Speed 32 mph    
Max Gust Speed 41 mph    
Visibility 10 miles    
Events Rain , Thunderstorm    
T = Trace of Precipitation, MM = Missing Value Source: NWS Daily Summary

Daily Weather History Graph

Daily Weather History Graph

Search for Another Location

Airport or City:

Trip Planner

Search our weather history database for the weather conditions in past years. The results will help you decide how hot, cold, wet, or windy it might be!

Date:

Astronomy

Aug. 15, 2014 Rise Set
Actual Time 6:09 AM MDT 7:47 PM MDT
Civil Twilight 5:41 AM MDT 8:15 PM MDT
Nautical Twilight 5:07 AM MDT 8:48 PM MDT
Astronomical Twilight 4:31 AM MDT 9:24 PM MDT
Moon 10:57 PM MDT (8/15) 11:48 AM MDT (8/15)
Length of Visible Light 14h 34m
Length of Day
13h 38m
Waning Gibbous, 68% of the Moon is Illuminated
Aug 15
Waning Gibbous
Aug 17
Last Quarter
Aug 25
New
Sep 2
First Quarter
Sep 8
Full

Hourly Weather History & Observations

Time (MDT) Temp. Heat Index Dew Point Humidity Pressure Visibility Wind Dir Wind Speed Gust Speed Precip Events Conditions
12:53 AM 70.0 °F - 62.1 °F 76% 29.83 in 10.0 mi SSW 6.9 mph - N/A   Clear
1:53 AM 66.0 °F - 62.1 °F 87% 29.83 in 10.0 mi WNW 8.1 mph - N/A   Clear
2:53 AM 64.9 °F - 61.0 °F 87% 29.83 in 10.0 mi WNW 8.1 mph - N/A   Clear
3:53 AM 64.0 °F - 60.1 °F 87% 29.82 in 10.0 mi West 9.2 mph - N/A   Clear
4:53 AM 63.0 °F - 59.0 °F 87% 29.83 in 10.0 mi West 5.8 mph - N/A   Clear
5:53 AM 62.1 °F - 59.0 °F 90% 29.84 in 10.0 mi West 9.2 mph - N/A   Clear
6:53 AM 63.0 °F - 57.9 °F 84% 29.87 in 10.0 mi SSW 5.8 mph - N/A   Clear
8:53 AM 75.0 °F - 59.0 °F 57% 29.91 in 10.0 mi WNW 8.1 mph - N/A   Clear
9:53 AM 79.0 °F - 59.0 °F 50% 29.90 in 10.0 mi West 9.2 mph - N/A   Clear
10:53 AM 84.9 °F 83.9 °F 57.0 °F 38% 29.90 in 10.0 mi Variable 3.5 mph - N/A   Clear
11:53 AM 90.0 °F 88.6 °F 57.0 °F 33% 29.88 in 10.0 mi NNE 6.9 mph - N/A   Clear
12:53 PM 90.0 °F - 52.0 °F 27% 29.87 in 10.0 mi North 6.9 mph - N/A   Clear
1:53 PM 91.9 °F - 51.1 °F 25% 29.86 in 10.0 mi North 6.9 mph - N/A   Clear
2:53 PM 91.0 °F - 51.1 °F 25% 29.84 in 10.0 mi North 10.4 mph 18.4 mph N/A   Clear
3:53 PM 93.9 °F - 52.0 °F 24% 29.81 in 10.0 mi North 9.2 mph - N/A   Partly Cloudy
4:53 PM 91.9 °F - 50.0 °F 24% 29.81 in 10.0 mi NE 4.6 mph - N/A   Partly Cloudy
5:53 PM 91.0 °F - 52.0 °F 26% 29.80 in 10.0 mi NE 6.9 mph - N/A   Clear
6:53 PM 84.9 °F 84.2 °F 57.9 °F 40% 29.82 in 10.0 mi East 3.5 mph - N/A   Mostly Cloudy
7:53 PM 82.9 °F 82.0 °F 55.0 °F 38% 29.83 in 10.0 mi ESE 4.6 mph - N/A Thunderstorm Scattered Clouds
8:53 PM 71.1 °F - 60.1 °F 68% 29.91 in 10.0 mi NNW 15.0 mph - 0.00 in Rain , Thunderstorm Light Rain
9:14 PM 71.1 °F - 59.0 °F 66% 30.09 in 10.0 mi North 10.4 mph - 0.00 in Rain Light Rain
9:53 PM 71.1 °F - 57.9 °F 63% 29.93 in 10.0 mi WNW 23.0 mph 29.9 mph 0.00 in   Mostly Cloudy
10:37 PM 70.0 °F - 55.9 °F 61% 30.10 in 10.0 mi West 26.5 mph 40.3 mph N/A Thunderstorm Overcast
11:53 PM 70.0 °F - 55.0 °F 59% 29.88 in 10.0 mi SW 18.4 mph - N/A   Clear